Starlink 33904

operational
NORAD ID: 63887 Int'l Des: 2025-094 Owner: SPXS Country: US Constellation: starlink
LEOCIRCULAR

关于 Starlink 33904

正在加载描述...

实时位置

正在加载3D地球...

即将过境

高度历史

Altitude vs Time

uPlot chart will show altitude changes over time

两行轨道根数

1 63887U 25094Z 26062.52560265 .00004354 00000-0 37239-3 0 9992
2 63887 69.9986 249.8426 0002996 268.5706 91.5110 14.98338226 46289
Epoch: Mar 3, 2026 • Age: 27 hours

当前状态

高度 595.0 km
速度 7.56 km/s
星下点 -68.11°S, 68.07°W
发射日期 May 10, 2025
运行时间 0.8 years
类型 internet

技术详情

分类 Payload
质量 575.00 kg
干质量 530.00 kg
总质量 575.00 kg
长度 0.30 m
直径 4.10 m
跨度 29.00 m
形状 Box + pan
制造商 SPXS
平台类型 Starlink V2MO
阶段状态 In Orbit
所有者/国家 SPXS/US

大型星座

Loading constellations...